Hourly Weather Campeche

Today, 30 September, Wednesday

Time Temperature Precipitation Wind Pressure Humidity
00:00 +25°C° 0.5 mm 1 mps 757 mmHg 98%
01:00 +23°C° 0 mm 0 mps 757 mmHg 98%
02:00 +23°C° 0 mm 0 mps 757 mmHg 98%
03:00 +23°C° 0 mm 0 mps 757 mmHg 98%
04:00 +22°C° 0 mm 0 mps 757 mmHg 98%
05:00 +22°C° 0 mm 0 mps 757 mmHg 98%
06:00 +22°C° 0 mm 0 mps 757 mmHg 98%
07:00 +25°C° 0 mm 0 mps 758 mmHg 87%
08:00 +27°C° 0 mm 0 mps 758 mmHg 77%
09:00 +30°C° 0 mm 0 mps 759 mmHg 66%
10:00 +33°C° 0.2 mm 1 mps 758 mmHg 60%
11:00 +35°C° 0.2 mm 1 mps 758 mmHg 55%
12:00 +36°C° 0.2 mm 1 mps 757 mmHg 49%
13:00 +36°C° 0.5 mm 2 mps 756 mmHg 55%
14:00 +34°C° 0.5 mm 2 mps 756 mmHg 62%
15:00 +33°C° 0.5 mm 3 mps 755 mmHg 69%
16:00 +30°C° 0.8 mm 2 mps 756 mmHg 75%
17:00 +29°C° 0.8 mm 2 mps 756 mmHg 82%
18:00 +27°C° 0.8 mm 1 mps 756 mmHg 88%
19:00 +27°C° 1.4 mm 1 mps 757 mmHg 91%
20:00 +26°C° 1.4 mm 1 mps 757 mmHg 94%
21:00 +25°C° 1.4 mm 1 mps 758 mmHg 97%
22:00 +25°C° 0.4 mm 1 mps 758 mmHg 97%
23:00 +25°C° 0.4 mm 1 mps 757 mmHg 98%

Tomorrow, 1 October, Thursday

Time Temperature Precipitation Wind Pressure Humidity
00:00 +25°C° 0.4 mm 1 mps 757 mmHg 98%
01:00 +23°C° 0.5 mm 0 mps 757 mmHg 98%
02:00 +23°C° 0.5 mm 0 mps 756 mmHg 98%
03:00 +23°C° 0.5 mm 0 mps 756 mmHg 99%
04:00 +23°C° 0.2 mm 0 mps 756 mmHg 99%
05:00 +23°C° 0.2 mm 0 mps 756 mmHg 99%
06:00 +22°C° 0.2 mm 0 mps 757 mmHg 99%
07:00 +23°C° 0.3 mm 0 mps 757 mmHg 95%
08:00 +25°C° 0.3 mm 0 mps 757 mmHg 91%
09:00 +28°C° 0.3 mm 1 mps 758 mmHg 88%
10:00 +30°C° 0.2 mm 1 mps 757 mmHg 78%
11:00 +30°C° 0.2 mm 0 mps 757 mmHg 68%
12:00 +32°C° 0.2 mm 0 mps 756 mmHg 58%
13:00 +33°C° 0.9 mm 1 mps 756 mmHg 63%
14:00 +33°C° 0.9 mm 1 mps 755 mmHg 68%
15:00 +32°C° 0.9 mm 1 mps 755 mmHg 74%
16:00 +30°C° 1.3 mm 1 mps 755 mmHg 81%
17:00 +28°C° 1.3 mm 1 mps 755 mmHg 88%
18:00 +26°C° 1.3 mm 1 mps 756 mmHg 96%
19:00 +26°C° 0.9 mm 1 mps 756 mmHg 96%
20:00 +26°C° 0.9 mm 2 mps 757 mmHg 97%
21:00 +25°C° 0.9 mm 2 mps 757 mmHg 97%
22:00 +25°C° 0.8 mm 2 mps 757 mmHg 98%
23:00 +25°C° 0.8 mm 2 mps 757 mmHg 98%

Day after tomorrow, 2 October, Friday

Time Temperature Precipitation Wind Pressure Humidity
00:00 +25°C° 0.8 mm 2 mps 756 mmHg 98%
01:00 +25°C° 0.8 mm 1 mps 756 mmHg 98%
02:00 +25°C° 0.8 mm 1 mps 756 mmHg 98%
03:00 +23°C° 0.8 mm 0 mps 756 mmHg 99%
04:00 +23°C° 1.4 mm 0 mps 756 mmHg 99%
05:00 +22°C° 1.4 mm 0 mps 756 mmHg 99%
06:00 +22°C° 1.4 mm 0 mps 756 mmHg 99%
07:00 +24°C° 0.4 mm 0 mps 756 mmHg 95%
08:00 +25°C° 0.4 mm 0 mps 756 mmHg 91%
09:00 +26°C° 0.4 mm 0 mps 757 mmHg 87%
10:00 +29°C° 0.4 mm 1 mps 756 mmHg 80%
11:00 +31°C° 0.4 mm 1 mps 756 mmHg 73%
12:00 +32°C° 0.4 mm 2 mps 755 mmHg 66%
13:00 +32°C° 0.6 mm 2 mps 755 mmHg 68%
14:00 +32°C° 0.6 mm 2 mps 754 mmHg 70%
15:00 +32°C° 0.6 mm 2 mps 754 mmHg 72%
16:00 +30°C° 1.1 mm 2 mps 754 mmHg 78%
17:00 +28°C° 1.1 mm 2 mps 754 mmHg 85%
18:00 +26°C° 1.1 mm 2 mps 755 mmHg 92%
19:00 +26°C° 0.3 mm 1 mps 755 mmHg 94%
20:00 +26°C° 0.3 mm 1 mps 756 mmHg 95%
21:00 +25°C° 0.3 mm 1 mps 756 mmHg 97%
22:00 +25°C° 0 mm 1 mps 756 mmHg 97%
23:00 +25°C° 0 mm 1 mps 755 mmHg 97%

3 October, Saturday

Time Temperature Precipitation Wind Pressure Humidity
00:00 +25°C° 0 mm 1 mps 755 mmHg 98%
01:00 +25°C° 0 mm 1 mps 754 mmHg 98%
02:00 +25°C° 0 mm 1 mps 754 mmHg 98%
03:00 +24°C° 0 mm 1 mps 754 mmHg 98%
04:00 +24°C° 0 mm 1 mps 754 mmHg 98%
05:00 +24°C° 0 mm 1 mps 754 mmHg 98%
06:00 +24°C° 0 mm 1 mps 754 mmHg 99%
07:00 +25°C° 0.1 mm 1 mps 754 mmHg 93%
08:00 +27°C° 0.1 mm 1 mps 754 mmHg 87%
09:00 +28°C° 0.1 mm 2 mps 755 mmHg 82%
10:00 +29°C° 0.3 mm 2 mps 754 mmHg 76%
11:00 +31°C° 0.3 mm 2 mps 754 mmHg 70%
12:00 +32°C° 0.3 mm 2 mps 753 mmHg 63%
13:00 +30°C° 0.9 mm 2 mps 753 mmHg 74%
14:00 +29°C° 0.9 mm 2 mps 752 mmHg 85%
15:00 +27°C° 0.9 mm 2 mps 751 mmHg 96%
16:00 +27°C° 0.4 mm 1 mps 752 mmHg 96%
17:00 +26°C° 0.4 mm 1 mps 752 mmHg 97%
18:00 +26°C° 0.4 mm 1 mps 752 mmHg 97%
19:00 +25°C° 0 mm 1 mps 753 mmHg 98%
20:00 +25°C° 0 mm 1 mps 753 mmHg 98%
21:00 +25°C° 0 mm 1 mps 754 mmHg 98%
22:00 +25°C° 0 mm 1 mps 754 mmHg 98%
23:00 +23°C° 0 mm 0 mps 754 mmHg 98%

4 October, Sunday

Time Temperature Precipitation Wind Pressure Humidity
00:00 +22°C° 0 mm 0 mps 754 mmHg 98%
01:00 +22°C° 0.2 mm 0 mps 754 mmHg 99%
02:00 +24°C° 0.2 mm 1 mps 753 mmHg 99%
03:00 +25°C° 0.2 mm 1 mps 753 mmHg 99%
04:00 +25°C° 0 mm 1 mps 754 mmHg 99%
05:00 +25°C° 0 mm 1 mps 754 mmHg 99%
06:00 +25°C° 0 mm 1 mps 754 mmHg 99%
07:00 +26°C° 0.3 mm 1 mps 754 mmHg 96%
08:00 +27°C° 0.3 mm 1 mps 755 mmHg 94%
09:00 +28°C° 0.3 mm 1 mps 755 mmHg 91%
10:00 +29°C° 1.8 mm 2 mps 755 mmHg 92%
11:00 +29°C° 1.8 mm 2 mps 755 mmHg 92%
12:00 +29°C° 1.8 mm 2 mps 754 mmHg 93%
13:00 +29°C° 1.4 mm 2 mps 754 mmHg 92%
14:00 +29°C° 1.4 mm 2 mps 753 mmHg 90%
15:00 +29°C° 1.4 mm 2 mps 753 mmHg 89%
16:00 +28°C° 0.2 mm 2 mps 753 mmHg 91%
17:00 +28°C° 0.2 mm 1 mps 753 mmHg 93%
18:00 +27°C° 0.2 mm 1 mps 754 mmHg 96%
19:00 +27°C° 0.3 mm 1 mps 754 mmHg 96%
20:00 +26°C° 0.3 mm 1 mps 755 mmHg 97%
21:00 +26°C° 0.3 mm 1 mps 755 mmHg 98%
22:00 +26°C° 0.1 mm 1 mps 755 mmHg 98%
23:00 +26°C° 0.1 mm 1 mps 755 mmHg 99%

5 October, Monday

Time Temperature Precipitation Wind Pressure Humidity
00:00 +26°C° 0.1 mm 1 mps 755 mmHg 99%
01:00 +26°C° 0.2 mm 1 mps 754 mmHg 99%
02:00 +26°C° 0.2 mm 2 mps 754 mmHg 99%
03:00 +26°C° 0.2 mm 2 mps 753 mmHg 99%
04:00 +26°C° 0.1 mm 2 mps 754 mmHg 99%
05:00 +26°C° 0.1 mm 2 mps 754 mmHg 99%
06:00 +25°C° 0.1 mm 2 mps 754 mmHg 99%
07:00 +26°C° 0.1 mm 2 mps 754 mmHg 97%
08:00 +27°C° 0.1 mm 2 mps 755 mmHg 96%
09:00 +28°C° 0.1 mm 2 mps 755 mmHg 94%
10:00 +29°C° 0.5 mm 2 mps 755 mmHg 88%
11:00 +30°C° 0.5 mm 3 mps 754 mmHg 82%
12:00 +31°C° 0.5 mm 3 mps 754 mmHg 76%
13:00 +31°C° 1.2 mm 3 mps 753 mmHg 80%
14:00 +30°C° 1.2 mm 2 mps 753 mmHg 84%
15:00 +30°C° 1.2 mm 2 mps 752 mmHg 87%
16:00 +29°C° 0.4 mm 2 mps 753 mmHg 90%
17:00 +28°C° 0.4 mm 2 mps 753 mmHg 93%
18:00 +27°C° 0.4 mm 1 mps 753 mmHg 96%
19:00 +27°C° 0 mm 1 mps 754 mmHg 97%
20:00 +26°C° 0 mm 1 mps 754 mmHg 98%
21:00 +26°C° 0 mm 1 mps 754 mmHg 99%
22:00 +26°C° 0 mm 1 mps 754 mmHg 98%
23:00 +26°C° 0 mm 1 mps 754 mmHg 98%
Show more

We Need Your Consent

Meteoprog and our Service Providers may store and access personal data such as cookies, device identifiers or other similar technologies on your device and process such data to personalise content and ads, as well as provide social media features and to analyse the traffic.

  • Store and/or access information on your device

    Cookies, device identifiers or other information can be stored or accessed on your device for the purposes indicated above.

  • Personalised ads and content, ad and content measurement, audience insights, and products development

    Ads and content can be personalised based on a profile. More data can be added to better personalise ads and content. Ad and content performance can be measured. Insights about the audience who saw the ads and content can be derived. Such data can be used to develop or improve user’s experience, systems and software.

By clicking ‘I Agree’ you will allow the use of indicated cookies, device identifiers, web beacons or other similar technologies. Your settings can be changed in the browser on your device.

For certain purposes, legitimate interests may be relied on, rather than consent. You can read more about this in our Privacy and Cookie Policy.